Regional Weather Roundup
Issued by NWS

Home | Current Version | Previous Version | Graphics & Text | Print | Product List | Glossary On
Versions: 1 2 3 4 5 6 7 8 9 10 11 12 13 14 15 16 17 18 19 20 21 22 23 24 25 26 27 28 29 30 31 32 33 34 35 36 37 38 39 40 41 42 43 44 45 46 47 48 49 50
000
ASUS45 KTFX 251504
RWRMT
MONTANA HOURLY WEATHER ROUNDUP
NATIONAL WEATHER SERVICE GREAT FALLS MT
804 AM MST THU DEC 25 2014

NOTE: "FAIR" INDICATES FEW OR NO CLOUDS BELOW 12000 FEET WITH NO
SIGNIFICANT WEATHER AND/OR OBSTRUCTIONS TO VISIBILITY.

* THESE STATIONS ARE NOT UNDER NWS QUALITY CONTROL. THEY DO NOT
   REPORT WEATHER SUCH AS PRECIPITATION OR FOG.

MTZ001>007-043-251600-
WEST OF THE DIVIDE
CITY           SKY/WX    TMP DP  RH WIND       PRES   REMARKS
KALISPELL      PTCLDY    18  16  92 CALM      29.89R
MISSOULA       CLOUDY    27  27 100 NW6       29.88R WCI  20
BUTTE          CLOUDY    21  16  81 NW8       29.73R WCI  11
MULLAN PASS    HAZE      23  18  81 VRB5      29.77R VSB M1/4 WCI  16
* ESSEX        N/A       14  11  88 N/A        N/A
* LINCOLN      N/A       20  16  84 NE6        N/A   WCI  12
* LOOKOUT PASS N/A       24  23  96 N5         N/A   WCI  18
* POLSON       N/A       23  22  96 N/A        N/A
* RONAN APT    PTCLDY    28  27  96 N/A        N/A
* SEELEY LAKE  N/A       16  14  92 NE1        N/A
* THOMP F APT  SUNNY     21  15  78 N12G24     N/A   WCI   9
$$

MTZ008-052>055-251600-
SOUTHWEST MONTANA
CITY           SKY/WX    TMP DP  RH WIND       PRES   REMARKS
BOZEMAN        CLOUDY    25  19  78 CALM      29.74R
DILLON         CLOUDY    25  16  69 N13       29.69R WCI  13
* W YELLOWSTON CLOUDY    20  15  81 N6G16      N/A   WCI  12
* THREE FORKS  CLOUDY    28  28 100 N14        N/A   WCI  17
* BOULDER HILL N/A       19  15  84 N17G24     N/A   WCI   4
* MONIDA PASS  N/A       18  14  84 NW22G28    N/A   WCI   1
* RAYNOLDS PAS N/A       17  15  92 N32G40     N/A   WCI  -3
* WHITEHALL    N/A       26  18  72 N10G16     N/A   WCI  16
* WISE RIVER   N/A       21  16  81 SW5G10     N/A   WCI  14
$$

MTZ009>010-012-014-046-048-049-054-251600-
EAST SLOPES AND CENTRAL MONTANA
CITY           SKY/WX    TMP DP  RH WIND       PRES   REMARKS
CUT BANK       SUNNY      7   3  83 W9        29.85R WCI  -6
GREAT FALLS    CLOUDY    23  19  85 CALM      29.86R
HELENA         CLOUDY    25  19  78 W10       29.83R WCI  15
* DEARBORN     N/A       25  22  88 VRB7       N/A   WCI  17
* EAST GLACIER N/A       11   9  92 N7         N/A
* MONARCH      N/A       18  14  84 NW9        N/A   WCI   7
* PENDROY      N/A       14  12  92 NW4        N/A
* ROGERS PASS  N/A       18  16  92 S2G7       N/A
* SWEET GRASS  N/A       21  21 100 N2         N/A
$$

MTZ011-013-016-021-035-040-045-047-050-051-251600-
NORTH CENTRAL MONTANA
CITY           SKY/WX    TMP DP  RH WIND       PRES   REMARKS
HAVRE          CLOUDY    25  19  78 W5        29.88R WCI  19
LEWISTOWN      CLOUDY    23  19  85 NW12      29.81R WCI  11
* N BAR RANCH  CLOUDY    21  19  92 NW16      29.78R WCI   7
* CHESTER      N/A       23  18  81 NE3G9      N/A
* DENTON       N/A       23  19  85 NW12       N/A   WCI  11
* GEYSER       N/A       22  20  92 W14        N/A   WCI   9
* JUDITH GAP   N/A       20  20 100 VRB30G38    N/A   WCI   1
* LOMA         N/A       25  21  85 N10G15     N/A   WCI  15
$$

MTZ017>020-022>027-061-062-251600-
NORTHEAST MONTANA
CITY           SKY/WX    TMP DP  RH WIND       PRES   REMARKS
GLASGOW        CLOUDY    25  18  75 NW17      29.83R WCI  12
GLENDIVE       CLOUDY    27  21  78 N14       29.78R WCI  16
JORDAN         CLOUDY    27  19  72 N13       29.82R WCI  16
SIDNEY         CLOUDY    27  19  72 NW14      29.81R WCI  16
WOLF POINT     CLOUDY    27  19  72 W7        29.84R WCI  19
* BEAVER HILL  N/A       24  21  88 NW11       N/A   WCI  13
* CIRCLE       N/A       25  19  78 NW4G12     N/A
* LINDSAY DVD  N/A       22  19  88 NW20G26    N/A   WCI   7
* NAVAJO       N/A       22  17  81 N21G26     N/A   WCI   7
* SACO         N/A       25  19  78 NW10G18    N/A   WCI  15
$$

MTZ028>042-056>058-251600-
SOUTHCENTRAL AND SOUTHEAST MONTANA
CITY           SKY/WX    TMP DP  RH WIND       PRES   REMARKS
BAKER          CLOUDY    25  21  85 N10       29.75R WCI  15
BILLINGS       LGT SNOW  25  25 100 NE7       29.79R VSB 2    WCI  17
LIVINGSTON     CLOUDY    25  19  78 E15       29.73R WCI  13
MILES CITY     CLOUDY    27  21  78 N12       29.79R WCI  16
* LAUREL APT   CLOUDY    25  16  69 N6         N/A   WCI  18
* ROUNDUP APT  CLOUDY    25  19  78 N9         N/A   WCI  16
* ALZADA       N/A       27  26  96 NW6        N/A   WCI  20
* HYSHAM       N/A       24  22  92 N5         N/A   WCI  18
* REED POINT   N/A       26  24  92 NW2        N/A
* ROSCOE HILL  N/A       22  18  85 NE7        N/A   WCI  13
$$

REGIONAL REPORTS...DAKOTAS
CITY           SKY/WX    TMP DP  RH WIND       PRES   REMARKS
WILLISTON      CLOUDY    25  19  78 N12       29.78R WCI  14
DICKINSON      FOG       27  21  78 NW10      29.70R WCI  18
BEACH          CLOUDY    25  25 100 NW12      29.76R WCI  14
CROSBY         CLOUDY    25  25 100 NW16      29.76R WCI  12
WATFORD CITY   CLOUDY    25  23  92 NW15G22   29.74R WCI  13
BISMARCK       CLOUDY    27  23  85 NW9       29.71R WCI  18
GRAND FORKS    CLOUDY    27  21  78 W9        29.67R WCI  18
FARGO          CLOUDY    28  25  89 NW8       29.67R WCI  20
BUFFALO SD     CLOUDY    27  21  78 N16       29.63R WCI  15
RAPID CITY     LGT SNOW  30  28  92 N15       29.65R VSB 2    WCI  19
$$

REGIONAL REPORTS...WYOMING/IDAHO/WASHINGTON
CITY           SKY/WX    TMP DP  RH WIND       PRES   REMARKS
GILLETTE       LGT SNOW  27  25  92 N13       29.63R VSB 3/4  WCI  16
SHERIDAN       LGT SNOW  27  25  92 N9        29.72R VSB 2    WCI  18
CODY           CLOUDY    23  19  85 N22G32    29.64R VSB 1    WCI   8
YELLOWSTONE LA CLOUDY    16  10  77 NE10G23   29.51R WCI   4
SALMON         CLOUDY    30  18  61 NE8       29.72R WCI  22
MULLAN PASS    HAZE      23  18  81 VRB5      29.77S VSB M1/4 WCI  16
SAND POINT     PTCLDY    27  27 100 CALM      29.95R
SPOKANE        SUNNY     25  23  92 SW6       29.94R WCI  18

$$



USA.gov is the U.S. government's official web portal to all federal, state and local government web resources and services.